TimePST,TemperatureF,Dew PointF,Humidity,Sea Level PressureIn,VisibilityMPH,Wind Direction,Wind SpeedMPH,Gust SpeedMPH,PrecipitationIn,Events,Conditions,WindDirDegrees,DateUTC
12:56 AM,50.0,46.0,86,30.25,10.0,WNW,11.5,-,N/A,,Partly Cloudy,290,2005-01-29 08:56:00
1:56 AM,48.9,46.0,90,30.25,10.0,WNW,5.8,-,N/A,,Clear,300,2005-01-29 09:56:00
2:56 AM,50.0,45.0,83,30.25,10.0,WNW,8.1,-,N/A,,Clear,300,2005-01-29 10:56:00
3:56 AM,46.9,45.0,93,30.25,10.0,West,6.9,-,N/A,,Clear,280,2005-01-29 11:56:00
4:56 AM,46.0,44.1,93,30.26,10.0,West,9.2,-,N/A,,Clear,270,2005-01-29 12:56:00
5:56 AM,46.9,44.1,90,30.27,10.0,WNW,8.1,-,N/A,,Clear,290,2005-01-29 13:56:00
6:56 AM,48.0,44.1,86,30.28,10.0,West,6.9,-,N/A,,Partly Cloudy,280,2005-01-29 14:56:00
7:56 AM,48.0,43.0,83,30.29,9.0,WNW,3.5,-,N/A,,Partly Cloudy,290,2005-01-29 15:56:00
8:56 AM,51.1,44.1,77,30.30,10.0,NNE,5.8,-,N/A,,Partly Cloudy,20,2005-01-29 16:56:00
9:56 AM,51.1,45.0,80,30.31,10.0,North,3.5,-,N/A,,Partly Cloudy,10,2005-01-29 17:56:00
10:56 AM,52.0,46.0,80,30.31,10.0,NE,5.8,-,N/A,,Partly Cloudy,50,2005-01-29 18:56:00
11:56 AM,52.0,45.0,77,30.30,10.0,NNE,5.8,-,N/A,,Partly Cloudy,20,2005-01-29 19:56:00
12:56 PM,53.1,45.0,74,30.27,10.0,NNE,5.8,-,N/A,,Partly Cloudy,20,2005-01-29 20:56:00
1:56 PM,54.0,44.1,69,30.25,10.0,Calm,Calm,-,N/A,,Scattered Clouds,0,2005-01-29 21:56:00
2:56 PM,55.9,45.0,67,30.25,10.0,NNW,4.6,-,N/A,,Scattered Clouds,330,2005-01-29 22:56:00
3:56 PM,57.0,45.0,64,30.25,10.0,West,12.7,-,N/A,,Scattered Clouds,280,2005-01-29 23:56:00
4:56 PM,55.0,45.0,69,30.25,10.0,WNW,13.8,-,N/A,,Partly Cloudy,290,2005-01-30 00:56:00
5:56 PM,53.1,46.0,77,30.25,10.0,West,10.4,-,N/A,,Partly Cloudy,280,2005-01-30 01:56:00
6:56 PM,51.1,46.0,83,30.25,10.0,West,10.4,-,N/A,,Clear,280,2005-01-30 02:56:00
7:56 PM,51.1,45.0,80,30.26,10.0,WNW,9.2,-,N/A,,Clear,290,2005-01-30 03:56:00
8:56 PM,50.0,45.0,83,30.26,10.0,West,10.4,-,N/A,,Clear,270,2005-01-30 04:56:00
9:56 PM,48.9,45.0,86,30.27,10.0,West,5.8,-,N/A,,Clear,270,2005-01-30 05:56:00
10:56 PM,50.0,46.0,86,30.27,10.0,West,3.5,-,N/A,,Clear,280,2005-01-30 06:56:00
11:56 PM,46.9,45.0,93,30.27,10.0,Calm,Calm,-,N/A,,Clear,0,2005-01-30 07:56:00